N869KN MYEN-MYZ2

Flight info

Callsign N869KN
Flight time N/A
Altitude 3500
Route DCT
Aircraft EC45/L-SDE2E3FGHRWXYZ/L

Departure

Time 2026-04-15 19:02
Airport Normans Cay Airport (MYEN)

Arrival

Time N/A
Airport MYZ2
Time Latitude Longitude Altitude Speed Heading
2026-04-15 18:39 24.75904 -76.37427 1491 ft 102 kts 64°
2026-04-15 18:40 24.76167 -76.36703 1492 ft 102 kts 65°
2026-04-15 18:40 24.76428 -76.35985 1496 ft 101 kts 65°
2026-04-15 18:40 24.76691 -76.35260 1494 ft 103 kts 64°
2026-04-15 18:40 24.76869 -76.34773 1495 ft 104 kts 64°
2026-04-15 18:41 24.77141 -76.34027 1494 ft 104 kts 64°
2026-04-15 18:41 24.77407 -76.33294 1492 ft 102 kts 64°
2026-04-15 18:41 24.77672 -76.32565 1490 ft 103 kts 64°
2026-04-15 18:41 24.78029 -76.31591 1385 ft 102 kts 63°
2026-04-15 18:42 24.78295 -76.30888 1145 ft 97 kts 62°
2026-04-15 18:42 24.78552 -76.30190 1067 ft 100 kts 65°
2026-04-15 18:42 24.78715 -76.29736 615 ft 85 kts 55°
2026-04-15 18:42 24.78843 -76.29332 276 ft 31 kts 52°
2026-04-15 18:43 24.78836 -76.29241 205 ft 6 kts 90°
2026-04-15 18:43 24.78846 -76.29300 212 ft 12 kts 193°
2026-04-15 18:43 24.78899 -76.29308 243 ft 8 kts 229°
2026-04-15 18:43 24.78890 -76.29296 248 ft 2 kts 213°
2026-04-15 18:44 24.78879 -76.29309 249 ft 5 kts 213°
2026-04-15 18:44 24.78850 -76.29332 236 ft 5 kts 216°
2026-04-15 18:44 24.78814 -76.29365 175 ft 2 kts 235°
2026-04-15 18:44 24.78804 -76.29383 174 ft 6 kts 251°
2026-04-15 18:45 24.78789 -76.29437 162 ft 7 kts 261°
2026-04-15 18:45 24.78784 -76.29476 159 ft 4 kts 261°
2026-04-15 18:45 24.78770 -76.29520 156 ft 7 kts 261°
2026-04-15 18:45 24.78761 -76.29554 152 ft 0 kts 239°
2026-04-15 18:46 24.78758 -76.29551 151 ft 1 kts 206°
2026-04-15 18:46 24.78750 -76.29558 142 ft 2 kts 190°
2026-04-15 18:46 24.78748 -76.29559 140 ft 0 kts 175°
2026-04-15 18:47 24.78744 -76.29560 66 ft 1 kts 164°
2026-04-15 18:47 24.78733 -76.29560 74 ft 0 kts 57°
2026-04-15 18:47 24.78734 -76.29562 74 ft 0 kts 11°
2026-04-15 18:47 24.78735 -76.29570 69 ft 2 kts 11°
2026-04-15 18:48 24.78736 -76.29569 70 ft 0 kts 12°
2026-04-15 18:48 24.78737 -76.29570 69 ft 2 kts 12°
2026-04-15 18:48 24.78741 -76.29575 70 ft 2 kts 12°
2026-04-15 18:48 24.78743 -76.29573 68 ft 0 kts 12°
2026-04-15 18:49 24.78743 -76.29574 61 ft 0 kts 13°
2026-04-15 18:49 24.78743 -76.29573 50 ft 0 kts 13°
2026-04-15 18:49 24.78745 -76.29572 41 ft 0 kts 12°
2026-04-15 18:49 24.78745 -76.29573 39 ft 0 kts 12°
2026-04-15 18:50 24.78744 -76.29573 38 ft 0 kts 13°
2026-04-15 18:50 24.78748 -76.29576 38 ft 0 kts 12°
2026-04-15 18:50 24.78748 -76.29575 37 ft 0 kts 13°
2026-04-15 18:51 24.78748 -76.29576 31 ft 0 kts 13°
2026-04-15 18:51 24.78748 -76.29575 27 ft 0 kts
2026-04-15 18:55 24.78747 -76.29575 25 ft 0 kts
2026-04-15 18:56 24.78743 -76.29573 26 ft 1 kts 359°
2026-04-15 18:56 24.78741 -76.29572 30 ft 0 kts
2026-04-15 18:56 24.78738 -76.29570 113 ft 1 kts 22°
2026-04-15 18:56 24.78741 -76.29573 110 ft 0 kts
2026-04-15 18:57 24.78708 -76.29613 102 ft 10 kts 247°
2026-04-15 18:57 24.78679 -76.29654 198 ft 7 kts 249°
2026-04-15 18:57 24.78658 -76.29750 689 ft 16 kts 247°
2026-04-15 18:57 24.78616 -76.29860 823 ft 19 kts 249°
2026-04-15 18:58 24.78526 -76.30075 995 ft 48 kts 241°
2026-04-15 18:58 24.78348 -76.30567 1132 ft 92 kts 252°
2026-04-15 18:58 24.78103 -76.31369 1237 ft 118 kts 247°
2026-04-15 18:58 24.77807 -76.32238 1325 ft 125 kts 245°
2026-04-15 18:59 24.77489 -76.33141 1399 ft 130 kts 247°
2026-04-15 18:59 24.77149 -76.34074 1494 ft 132 kts 246°
2026-04-15 18:59 24.76803 -76.35025 1624 ft 136 kts 245°
2026-04-15 18:59 24.76447 -76.36000 1711 ft 139 kts 246°
2026-04-15 19:00 24.76085 -76.36996 1831 ft 142 kts 246°
2026-04-15 19:00 24.75716 -76.38007 1918 ft 142 kts 244°
2026-04-15 19:00 24.75352 -76.39006 2018 ft 141 kts 245°
2026-04-15 19:00 24.74984 -76.40017 2093 ft 143 kts 246°
2026-04-15 19:01 24.74610 -76.41040 2155 ft 145 kts 246°
2026-04-15 19:01 24.74241 -76.42052 2269 ft 142 kts 247°
2026-04-15 19:01 24.73868 -76.43074 2327 ft 144 kts 244°
2026-04-15 19:01 24.73513 -76.44048 2490 ft 137 kts 243°
2026-04-15 19:02 24.73147 -76.45047 2488 ft 144 kts 246°
2026-04-15 19:02 24.72772 -76.46075 2488 ft 145 kts 245°
2026-04-15 19:02 24.72397 -76.47100 2485 ft 144 kts 244°
2026-04-15 19:02 24.72025 -76.48119 2487 ft 144 kts 245°
2026-04-15 19:03 24.71652 -76.49142 2492 ft 143 kts 244°
2026-04-15 19:03 24.71279 -76.50161 2490 ft 145 kts 244°
2026-04-15 19:03 24.70903 -76.51190 2500 ft 143 kts 243°
2026-04-15 19:03 24.70532 -76.52206 2490 ft 143 kts 243°
2026-04-15 19:04 24.70160 -76.53223 2488 ft 144 kts 245°
2026-04-15 19:04 24.69788 -76.54237 2486 ft 142 kts 245°
2026-04-15 19:04 24.69419 -76.55245 2492 ft 142 kts 244°
2026-04-15 19:04 24.69049 -76.56256 2490 ft 144 kts 243°
2026-04-15 19:05 24.68675 -76.57281 2484 ft 145 kts 244°
2026-04-15 19:05 24.68305 -76.58291 2484 ft 143 kts 245°
2026-04-15 19:05 24.67937 -76.59294 2491 ft 141 kts 243°
2026-04-15 19:05 24.67568 -76.60300 2486 ft 143 kts 244°
2026-04-15 19:06 24.67195 -76.61318 2491 ft 145 kts 244°
2026-04-15 19:06 24.66819 -76.62342 2490 ft 143 kts 243°
2026-04-15 19:06 24.66449 -76.63354 2481 ft 143 kts 245°
2026-04-15 19:06 24.66077 -76.64364 2482 ft 142 kts 244°
2026-04-15 19:07 24.65706 -76.65378 2487 ft 143 kts 245°
2026-04-15 19:07 24.65332 -76.66397 2490 ft 144 kts 246°
2026-04-15 19:07 24.64960 -76.67410 2489 ft 143 kts 245°
2026-04-15 19:07 24.64588 -76.68423 2488 ft 143 kts 245°
2026-04-15 19:08 24.64215 -76.69441 2484 ft 143 kts 245°
2026-04-15 19:08 24.63845 -76.70445 2487 ft 143 kts 245°
2026-04-15 19:08 24.63496 -76.71396 2484 ft 142 kts 246°
2026-04-15 19:08 24.63124 -76.72409 2482 ft 144 kts 246°
2026-04-15 19:09 24.62748 -76.73432 2493 ft 143 kts 243°
2026-04-15 19:09 24.62377 -76.74442 2488 ft 143 kts 244°
2026-04-15 19:09 24.62004 -76.75455 2489 ft 143 kts 246°
2026-04-15 19:09 24.61629 -76.76477 2487 ft 144 kts 245°
2026-04-15 19:10 24.61251 -76.77502 2485 ft 145 kts 244°
2026-04-15 19:10 24.60874 -76.78525 2485 ft 144 kts 245°
2026-04-15 19:10 24.60499 -76.79543 2488 ft 143 kts 244°
2026-04-15 19:10 24.60129 -76.80559 2476 ft 144 kts 248°
2026-04-15 19:11 24.59798 -76.81509 2671 ft 120 kts 251°
2026-04-15 19:11 24.59455 -76.82402 2725 ft 137 kts 214°
2026-04-15 19:11 24.58925 -76.83296 2759 ft 140 kts 204°
2026-04-15 19:11 24.58236 -76.83986 2873 ft 131 kts 180°
2026-04-15 19:12 24.57406 -76.84444 2864 ft 134 kts 168°
2026-04-15 19:12 24.56506 -76.84702 2890 ft 133 kts 168°
2026-04-15 19:12 24.55568 -76.84831 2798 ft 134 kts 151°
2026-04-15 19:12 24.54862 -76.84623 3155 ft 80 kts 99°
2026-04-15 19:13 24.54983 -76.84277 3388 ft 59 kts 33°
2026-04-15 19:13 24.55436 -76.84133 3358 ft 55 kts 25°
2026-04-15 19:13 24.55828 -76.84068 2631 ft 64 kts 19°
2026-04-15 19:13 24.56268 -76.84028 2268 ft 63 kts 19°
2026-04-15 19:14 24.56727 -76.84008 1844 ft 70 kts 31°
2026-04-15 19:14 24.57203 -76.83884 1764 ft 72 kts 36°
2026-04-15 19:14 24.57671 -76.83719 1678 ft 69 kts 36°
2026-04-15 19:14 24.58113 -76.83527 1539 ft 68 kts 39°
2026-04-15 19:15 24.58523 -76.83286 1114 ft 62 kts 59°
2026-04-15 19:15 24.58829 -76.83088 735 ft 42 kts 61°
2026-04-15 19:15 24.59076 -76.82917 351 ft 40 kts 78°
2026-04-15 19:15 24.59197 -76.82739 215 ft 8 kts 94°
2026-04-15 19:16 24.59185 -76.82718 245 ft 6 kts 94°
2026-04-15 19:16 24.59177 -76.82675 274 ft 2 kts 88°
2026-04-15 19:16 24.59175 -76.82685 276 ft 0 kts 91°
2026-04-15 19:16 24.59161 -76.82578 254 ft 29 kts 75°
2026-04-15 19:17 24.59166 -76.82384 267 ft 28 kts 83°
2026-04-15 19:17 24.59222 -76.82176 187 ft 20 kts 81°
2026-04-15 19:17 24.59252 -76.82155 117 ft 3 kts 108°
2026-04-15 19:17 24.59234 -76.82174 118 ft 5 kts 115°
2026-04-15 19:18 24.59232 -76.82178 107 ft 3 kts 111°
2026-04-15 19:18 24.59236 -76.82143 105 ft 6 kts 97°
2026-04-15 19:18 24.59230 -76.82072 89 ft 1 kts 90°
2026-04-15 19:19 24.59230 -76.82060 81 ft 4 kts 83°
2026-04-15 19:19 24.59232 -76.82051 58 ft 1 kts 144°
2026-04-15 19:19 24.59228 -76.82048 58 ft 0 kts 97°
2026-04-15 19:19 24.59228 -76.82049 54 ft 1 kts 101°
2026-04-15 19:20 24.59229 -76.82044 38 ft 1 kts 99°
2026-04-15 19:20 24.59230 -76.82044 36 ft 1 kts 101°
2026-04-15 19:21 24.59231 -76.82045 28 ft 0 kts 96°
2026-04-15 19:22 24.59230 -76.82045 28 ft 0 kts 97°
2026-04-15 19:22 24.59230 -76.82043 28 ft 0 kts 98°
2026-04-15 19:23 24.59230 -76.82044 27 ft 0 kts 98°
2026-04-15 19:40 24.59231 -76.82044 48 ft 0 kts 96°
2026-04-15 19:40 24.59230 -76.82043 46 ft 0 kts 98°
2026-04-15 19:41 24.59230 -76.82044 44 ft 0 kts 98°
2026-04-15 19:41 24.59231 -76.82044 43 ft 0 kts 96°
2026-04-15 19:41 24.59230 -76.82042 41 ft 2 kts 97°
2026-04-15 19:41 24.59230 -76.82038 36 ft 0 kts 100°
2026-04-15 19:42 24.59229 -76.82035 36 ft 1 kts 110°
2026-04-15 19:42 24.59227 -76.82029 37 ft 0 kts 109°
2026-04-15 19:45 24.59221 -76.82028 38 ft 1 kts 185°
2026-04-15 19:45 24.59216 -76.82028 38 ft 1 kts 216°
2026-04-15 19:45 24.59213 -76.82031 38 ft 0 kts 222°
2026-04-15 19:46 24.59212 -76.82030 40 ft 0 kts 252°
2026-04-15 19:46 24.59210 -76.82030 41 ft 0 kts 274°
2026-04-15 19:46 24.59210 -76.82032 41 ft 0 kts 307°
2026-04-15 19:47 24.59212 -76.82033 41 ft 1 kts 354°
2026-04-15 19:47 24.59214 -76.82032 41 ft 0 kts 18°
2026-04-15 19:47 24.59215 -76.82032 41 ft 0 kts 32°
2026-04-15 19:48 24.59214 -76.82031 41 ft 0 kts 48°
2026-04-15 19:48 24.59215 -76.82031 41 ft 0 kts 52°
2026-04-15 19:49 24.59214 -76.82031 41 ft 0 kts 53°